#timestamp,LO_Frequency,Hit,StdDev 
1509508815.4,286047001.5,N
1509508835.2,286047000.0,N
1509508855.1,286046998.7,N
1509508856.0,286046998.7,N
1509508875.8,286046998.9,N
1509508895.7,286046997.1,N
1509508915.5,286046995.6,N
1509508935.3,286046997.8,N
1509508955.2,286046998.9,N
1509508975.9,286046998.2,N
1509508995.7,286047002.7,N
1509509015.6,286046999.1,N
1509509035.4,286046994.9,N
1509509055.2,286046999.6,N
1509509075.1,286046999.0,N
1509509076.0,286046999.0,N
1509509095.8,286046999.6,N
1509509115.6,286046999.4,N
1509509135.5,286047002.5,N
1509509155.3,286046995.8,N
1509509175.1,286046996.2,N
1509509195.9,286046996.6,N
1509509215.7,286047001.2,N
1509509235.5,286047000.8,N
1509509255.4,286046998.9,N
1509509275.2,286047000.9,N
1509509295.0,286047002.2,N
1509509295.9,286047002.2,N
1509509315.8,286047003.3,N
1509509335.6,286047004.0,N
1509509355.4,286047003.0,N
1509509375.3,286047003.5,N
1509509395.1,286047002.6,N
1509509415.8,286047003.7,N
1509509435.7,286046998.6,N
1509509455.5,286046998.6,N
1509509475.3,286047000.5,N
1509509495.2,286047000.2,N
1509509515.0,286046999.6,N
1509509515.9,286046999.6,N
1509509535.7,286046995.1,N
1509509555.6,286046996.8,N
1509509575.4,286046999.0,N
1509509595.2,286046999.3,N
1509509615.1,286046999.5,N
1509509616.0,286046999.5,N
1509509635.8,286046998.0,N
1509509655.7,286046994.9,N
1509509675.5,286046999.1,N
1509509695.3,286046995.0,N
1509509715.2,286046999.6,N
1509509735.9,286046999.0,N
1509509755.7,286046999.0,N
1509509775.6,286046997.6,N
1509509795.4,286046996.9,N
1509509815.2,286046996.5,N
1509509835.1,286046996.5,N
1509509836.0,286046996.5,N
1509509855.8,286046996.5,N
1509509875.6,286046996.0,N
1509509895.5,286046992.7,Y
1509509915.3,286046990.6,P
1509509935.1,286046991.3,N
1509509955.9,286046996.6,N
1509509975.7,286046999.3,N
1509509995.5,286047002.2,N
1509510015.4,286047000.6,N
1509510035.2,286046998.9,N
1509510055.0,286047002.6,N
1509510055.9,286047002.6,N
1509510075.8,286047002.7,N
1509510095.6,286047002.7,N
1509510115.4,286046998.2,N
1509510135.3,286047001.6,N
1509510155.1,286047001.3,N
1509510175.8,286047000.4,N
1509510195.7,286046999.8,N
1509510215.5,286047000.3,N
1509510235.3,286047001.9,N
1509510255.2,286047003.7,N
1509510275.0,286047003.2,N
1509510275.9,286047003.2,N
1509510295.8,286047002.6,N
1509510315.6,286046998.9,N
1509510335.4,286047000.0,N
1509510355.3,286047002.7,N
1509510375.1,286047004.1,N
1509510376.0,286047004.1,N
1509510395.8,286047001.3,N
1509510415.7,286047001.8,N
1509510435.5,286046999.9,N
1509510455.3,286046999.9,N
1509510475.2,286047000.9,N
1509510495.9,286047002.0,N
1509510515.7,286047003.8,N
1509510535.6,286047007.5,Y
1509510555.4,286047005.0,P
1509510575.2,286047005.6,P
1509510595.1,286047007.6,P
1509510596.0,286047007.6,Y
1509510615.8,286047003.2,P
1509510635.7,286047000.5,N
1509510655.5,286047001.4,N
1509510675.3,286047000.9,N
1509510695.2,286046997.3,N
1509510715.9,286046995.5,N
1509510735.7,286046995.4,N
1509510755.6,286046998.7,N
1509510775.4,286046995.6,N
1509510795.2,286046995.9,N
1509510815.1,286046995.1,N
1509510816.0,286046995.1,N
1509510835.8,286046990.6,N
1509510855.6,286046986.9,Y
1509510875.5,286046991.2,P
1509510895.3,286046987.4,P
1509510915.1,286046987.1,N
1509510935.9,286046987.4,N
1509510955.7,286046989.5,N
1509510975.5,286046990.7,N
1509510995.4,286046991.5,N
1509511015.2,286046987.1,Y
1509511035.1,286046995.0,P
1509511036.0,286046995.0,N
1509511055.8,286046996.8,N
1509511075.6,286046997.5,N
1509511095.5,286046995.3,N
1509511115.3,286046999.2,N
1509511135.1,286046999.9,N
1509511155.9,286047000.9,N
1509511175.7,286046998.8,N
1509511195.5,286047002.3,N
1509511215.4,286047003.7,N
1509511235.2,286046999.7,N
1509511255.0,286046996.9,N
1509511255.9,286046996.9,N
1509511275.8,286046998.3,N
1509511295.6,286046998.3,N
1509511315.4,286046999.3,N
1509511335.3,286046998.9,N
1509511355.1,286046998.0,N
1509511375.8,286046998.0,N
1509511395.7,286046996.9,N
1509511415.5,286046999.0,N
1509511435.3,286046998.6,N
1509511455.2,286046999.8,N
1509511475.0,286047001.4,N
1509511475.9,286047001.4,N
1509511495.7,286047002.5,N
1509511515.6,286046999.9,N
1509511535.4,286047000.8,N
1509511555.2,286046999.2,N
1509511575.1,286046998.9,N
1509511576.0,286046998.9,N
1509511595.8,286046997.3,N
1509511615.7,286046995.0,N
1509511635.5,286046993.6,Y
1509511655.3,286046995.3,P
1509511675.2,286047000.6,N
1509511695.9,286047000.1,N
1509511715.7,286047001.5,N
1509511735.6,286047004.7,N
1509511755.4,286047004.6,N
1509511775.2,286047004.5,N
1509511795.1,286047008.0,N
1509511796.0,286047008.0,N
1509511815.8,286047010.6,N
1509511835.6,286047007.7,N
1509511855.5,286047010.1,N
1509511875.3,286047010.3,N
1509511895.1,286047005.7,N
1509511915.9,286047001.6,N
1509511935.7,286046998.2,N
1509511955.5,286047002.7,N
1509511975.4,286047005.7,N
1509511995.2,286047006.1,N
1509512015.0,286047006.8,N
1509512015.9,286047006.8,N
1509512035.8,286047005.1,N
1509512055.6,286047002.1,N
1509512075.4,286047002.3,N
1509512095.3,286047002.5,N
1509512115.1,286047002.2,N
1509512135.8,286047003.3,N
1509512155.7,286047004.8,N
1509512175.5,286047004.6,N
1509512195.3,286047005.1,N
1509512215.2,286047003.4,N
1509512235.0,286047004.2,N
1509512235.9,286047004.2,N
1509512255.8,286047006.0,N
1509512275.6,286047007.6,N
1509512295.4,286047007.4,N
1509512315.3,286047006.7,N
1509512335.1,286047007.0,N
1509512336.0,286047007.0,N
1509512355.8,286047005.8,N
1509512375.7,286047004.6,N
1509512395.5,286047004.8,N
